This demonstration page uses our WeatherBlox Daily Observations layout. Learn more.

Left ArrowRight Arrow

Hourly Observations for December 10, 2022

Temp ( °F °C ) Dew Point ( °F °C ) Humidity (%) Winds ( mph kmh ) Pressure ( in mb ) Visibility ( mi km ) Precip ( " mm )
12:19 am 00:19 Partly Cloudy with Mist and Fog 59 15 58 14.4 96 96 SSE 6 9 29.97 1015 4 6 0.00 0.00
12:53 am 00:53 Clear with Mist and Fog 58 14.4 57 13.9 97 97 SSE 5 7 29.94 1014 3 5 0.00 0.00
1:53 am 01:53 Mostly Clear with Mist and Fog 57 13.9 56 13.3 96 96 SSE 6 9 29.93 1014 3 4 0.00 0.00
2:37 am 02:37 Mostly Cloudy with Mist and Fog 56 13.3 55 12.8 97 97 SSE 6 9 29.97 1015 2 3 0.00 0.00
2:53 am 02:53 Cloudy with Mist and Fog 56 13.3 56 13.3 100 100 S 5 7 29.95 1014 2 3 0.00 0.00
3:09 am 03:09 Cloudy with Mist and Fog 56 13.3 55 12.8 97 97 S 3 6 29.98 1015 2 3 0.00 0.00
3:26 am 03:26 Mostly Cloudy with Mist and Fog 56 13.3 55 12.8 97 97 Calm 29.98 1015 2 3 0.00 0.00
3:53 am 03:53 Mostly Cloudy with Mist and Fog 55 12.8 54 12.2 96 96 NW 3 6 29.95 1014 1 2 0.00 0.00
4:10 am 04:10 Cloudy with Mist and Fog 55 12.8 54 12.2 96 96 Calm 29.98 1015 1 1 0.00 0.00
4:18 am 04:18 Cloudy with Mist and Fog 55 12.8 54 12.2 96 96 Calm 29.98 1015 1 1 0.00 0.00
4:36 am 04:36 Cloudy with Mist and Fog 55 12.8 54 12.2 96 96 NE 3 6 29.97 1015 1 2 0.00 0.00
4:45 am 04:45 Mostly Cloudy with Mist and Fog 55 12.8 54 12.2 96 96 Calm 29.97 1015 1 1 0.00 0.00
4:53 am 04:53 Cloudy with Mist and Fog 55 12.8 55 12.8 100 100 Calm 29.94 1014 1 2 0.00 0.00
5:16 am 05:16 Cloudy with Mist and Fog 55 12.8 55 12.8 100 100 N 3 6 29.98 1015 2 2 0.00 0.00
5:25 am 05:25 Cloudy with Mist and Fog 55 12.8 54 12.2 96 96 N 6 9 29.98 1015 2 2 0.00 0.00
5:42 am 05:42 Cloudy with Mist and Fog 56 13.3 56 13.3 100 100 N 5 7 29.98 1015 2 3 0.00 0.00
5:53 am 05:53 Cloudy with Mist and Fog 56 13.3 56 13.3 100 100 NNE 3 6 29.95 1014 2 3 0.00 0.00
6:37 am 06:37 Cloudy with Mist and Fog 57 13.9 56 13.3 96 96 E 5 7 29.97 1015 3 4 0.00 0.00
6:53 am 06:53 Cloudy with Mist and Fog 57 13.9 57 13.9 100 100 ESE 3 6 29.96 1015 3 4 0.00 0.00
7:02 am 07:02 Cloudy with Mist and Fog 58 14.4 57 13.9 97 97 ENE 3 6 29.98 1015 3 4 0.00 0.00
7:53 am 07:53 Cloudy with Mist and Fog 58 14.4 57 13.9 97 97 Calm 29.97 1015 3 4 0.00 0.00
8:18 am 08:18 Cloudy with Mist and Fog 58 14.4 57 13.9 97 97 Calm 30.01 1016 2 3 0.00 0.00
8:35 am 08:35 Cloudy with Mist and Fog 59 15 58 14.4 96 96 Calm 30.01 1016 2 3 0.00 0.00
8:53 am 08:53 Cloudy with Mist and Fog 59 15 57 13.9 93 93 W 5 7 30.01 1016 2 3 0.00 0.00
9:12 am 09:12 Cloudy with Mist and Fog 59 15 58 14.4 96 96 ESE 7 11 30.01 1016 2 3 0.00 0.00
9:20 am 09:20 Cloudy with Mist and Fog 59 15 58 14.4 96 96 SE 7 11 30.01 1016 2 3 0.00 0.00
9:36 am 09:36 Cloudy with Mist and Fog 59 15 58 14.4 96 96 SSW 8 13 30.03 1017 2 3 0.00 0.00
9:53 am 09:53 Cloudy with Mist and Fog 58 14.4 57 13.9 97 97 W 8 13 30.04 1017 2 3 0.00 0.00
10:53 am 10:53 Cloudy with Light Rain 57 13.9 56 13.3 96 96 NNE 6 9 30.05 1018 2 2 0.01 0.25
11:22 am 11:22 Cloudy with Light Rain 57 13.9 56 13.3 96 96 ESE 9 15 30.04 1017 2 3 0.02 0.51
11:43 am 11:43 Cloudy with Mist and Fog 58 14.4 57 13.9 97 97 ESE 9 15 30.03 1017 2 3 0.02 0.51
11:53 am 11:53 Cloudy with Mist and Fog 59 15 58 14.4 96 96 NNW 7 11 30.02 1017 2 2 0.02 0.51
12:13 pm 12:13 Cloudy with Mist and Fog 58 14.4 57 13.9 97 97 NNW 8 13 30.04 1017 3 4 0.00 0.00
12:33 pm 12:33 Cloudy with Mist and Fog 58 14.4 57 13.9 97 97 NNW 10 17 30.05 1017 3 5 0.00 0.00
12:50 pm 12:50 Cloudy with Mist and Fog 57 14 57 14 100 100 NNW 8 13 30.04 1017 3 5 0.00 0.00
12:53 pm 12:53 Cloudy with Mist and Fog 58 14.4 57 13.9 97 97 NNW 7 11 30.03 1017 3 5 0.00 0.00
1:53 pm 13:53 Cloudy with Mist and Fog 60 15.6 57 13.9 90 90 N 7 11 30.00 1016 4 6 0.00 0.00
2:13 pm 14:13 Partly Cloudy with Mist and Fog 62 16.7 58 14.4 86 86 NW 6 9 29.99 1016 5 8 0.00 0.00
2:53 pm 14:53 Partly Cloudy 62 16.7 57 13.9 84 84 NW 8 13 29.99 1016 7 11 0.00 0.00
3:17 pm 15:17 Cloudy with Mist and Fog 61 16.1 57 13.9 87 87 W 5 7 30.00 1016 5 8 0.00 0.00
3:53 pm 15:53 Cloudy with Haze 62 16.7 57 13.9 84 84 Calm 29.99 1016 6 10 0.00 0.00
4:03 pm 16:03 Cloudy with Haze 61 16.1 56 13.3 83 83 N 5 7 30.00 1016 6 10 0.00 0.00
4:13 pm 16:13 Mostly Cloudy with Haze 62 16.7 57 13.9 84 84 NNW 5 7 29.98 1015 6 10 0.00 0.00
4:22 pm 16:22 Partly Cloudy 63 17.2 57 13.9 81 81 NW 6 9 29.98 1015 7 11 0.00 0.00
4:53 pm 16:53 Sunny 63 17.2 56 13.3 78 78 NNW 8 13 29.99 1016 7 11 0.00 0.00
5:53 pm 17:53 Clear 59 15 55 12.8 87 87 NW 3 6 30.01 1016 7 11 0.00 0.00
6:53 pm 18:53 Clear with Mist and Fog 57 13.9 54 12.2 89 89 NNW 6 9 30.04 1017 6 10 0.00 0.00
7:53 pm 19:53 Clear with Mist and Fog 54 12.2 53 11.7 97 97 E 3 6 30.05 1018 4 6 0.00 0.00
8:49 pm 20:49 Clear with Mist and Fog 54 12 52 11 94 94 Calm 30.09 1019 2 3 0.00 0.00
8:53 pm 20:53 Clear with Mist and Fog 53 11.7 52 11.1 96 96 Calm 30.06 1018 2 3 0.00 0.00
9:10 pm 21:10 Mostly Clear with Fog 51 10.6 50 10 96 96 Calm 30.11 1020 1 1 0.00 0.00
9:17 pm 21:17 Mostly Clear with Fog 51 10.6 50 10 96 96 NNW 3 6 30.11 1020 0 0 0.00 0.00
9:28 pm 21:28 Mostly Clear with Mist and Fog 51 10.6 50 10 96 96 WNW 6 9 30.11 1020 1 2 0.00 0.00
9:38 pm 21:38 Mostly Clear with Mist and Fog 50 10 50 10 100 100 NNW 5 7 30.12 1020 1 1 0.00 0.00
9:45 pm 21:45 Mostly Clear with Mist and Fog 50 10 50 10 100 100 Calm 30.12 1020 1 2 0.00 0.00
9:53 pm 21:53 Mostly Clear with Mist and Fog 50 10 50 10 100 100 Calm 30.07 1018 2 3 0.00 0.00
10:01 pm 22:01 Mostly Clear with Mist and Fog 50 10 49 9.4 96 96 VRB 3 6 30.12 1020 1 2 0.00 0.00
10:06 pm 22:06 Mostly Clear with Mist and Fog 50 10 49 9.4 96 96 ENE 5 7 30.12 1020 1 2 0.00 0.00
10:19 pm 22:19 Mostly Clear with Fog 51 10.6 51 10.6 100 100 NE 6 9 30.12 1020 1 1 0.00 0.00
10:26 pm 22:26 Mostly Clear with Fog 52 11.1 51 10.6 97 97 NE 6 9 30.11 1020 0 0 0.00 0.00
10:53 pm 22:53 Mostly Clear with Fog 53 11.7 53 11.7 100 100 NE 5 7 30.06 1018 0 0 0.00 0.00
11:01 pm 23:01 Mostly Clear with Fog 53 11.7 53 11.7 100 100 NNE 5 7 30.10 1019 0 0 0.00 0.00
11:48 pm 23:48 Cloudy with Mist and Fog 54 12 52 11 94 94 ENE 6 9 30.11 1020 1 2 0.00 0.00
11:53 pm 23:53 Cloudy with Mist and Fog 53 11.7 52 11.1 96 96 ENE 6 9 30.08 1019 3 4 0.00 0.00

Powered by AerisWeather